Lid_Strength_Index
2 1 1 1 1 1 1 1 1 1 1 2 2 2 2 2 2 4 8 5 3 -1 -1 4 6 7 7 9 7 8 13 13 11 10 9 8 8 7 5 6 5 5 6 5 4
2 2 1 2 2 1 1 1 1 1 2 2 2 2 2 2 5 6 3 -0 -2 -2 5 7 8 9 10 9 9 10 13 12 8 7 8 7 9 8 8 7 6 5 5 5 5
2 2 1 2 2 2 1 1 2 1 2 2 2 2 2 2 6 4 -3 -1 -2 -1 6 7 8 9 12 10 10 10 13 9 8 8 6 6 8 7 8 9 7 6 5 5 6
3 2 2 2 2 2 2 2 2 2 2 2 2 2 2 4 10 5 -2 -2 -2 4 7 7 8 11 13 13 10 12 9 8 8 7 7 8 7 9 8 8 6 4 4 5 6
3 3 2 2 2 2 2 2 2 2 2 2 2 2 4 6 5 1 -2 -2 1 4 5 7 9 12 14 12 11 12 10 8 7 7 7 6 7 9 8 6 5 5 4 5 6
4 3 3 2 2 2 2 2 2 2 2 2 2 2 5 8 3 0 1 2 4 5 4 5 7 9 11 12 12 10 10 9 9 9 9 8 8 8 7 6 5 5 5 5 5
3 3 3 2 2 2 2 2 2 1 2 2 1 2 6 8 2 2 3 4 3 3 4 5 6 8 9 10 10 10 12 10 10 9 10 8 9 9 7 5 5 5 5 5 5
3 4 4 3 3 2 1 2 1 1 1 1 2 4 9 3 3 4 3 3 3 4 5 5 6 8 10 10 9 12 13 15 11 9 8 9 12 9 7 7 7 5 5 5 5
3 4 4 3 3 2 2 2 2 1 1 1 4 6 7 0 3 2 3 4 4 4 5 4 7 9 9 12 14 13 16 14 12 9 9 9 11 9 7 7 8 6 6 5 5
3 4 4 4 3 3 3 2 2 2 2 2 2 7 4 5 4 4 4 4 5 6 7 8 10 12 13 14 17 15 14 13 13 10 10 11 11 9 8 7 7 7 6 6 5
5 4 4 4 4 3 5 6 7 6 6 6 5 5 4 2 3 5 4 5 5 7 11 10 12 14 12 11 11 11 12 13 11 9 10 11 11 10 8 8 7 8 8 8 6
5 5 4 4 4 4 6 8 6 7 10 5 4 4 3 3 6 5 4 8 8 11 10 11 13 9 9 9 10 11 12 13 11 9 10 11 11 9 9 9 9 8 8 7 6
5 5 5 5 4 5 7 5 3 5 10 7 5 6 5 5 6 7 6 7 9 11 11 13 10 8 9 9 10 11 12 12 11 9 10 11 12 11 9 9 8 8 8 7 6
5 5 5 6 7 7 8 5 5 5 12 9 7 7 5 7 8 5 5 7 10 11 11 12 9 9 10 11 10 13 9 9 10 12 15 10 16 12 10 10 9 9 9 8 7
6 5 5 6 9 9 6 5 5 6 19 7 8 6 7 9 8 7 5 8 10 11 11 12 11 11 11 10 9 11 9 10 10 13 15 13 15 13 10 10 10 9 8 8 8
6 6 6 7 8 7 5 5 6 12 19 10 9 10 10 9 8 8 8 8 8 11 11 11 8 9 10 8 9 8 11 12 13 15 17 14 15 14 12 11 9 8 7 7 6
7 7 8 8 9 6 6 7 13 17 8 10 9 10 11 11 10 9 10 12 13 16 15 12 11 9 8 10 9 11 15 18 19 19 17 13 14 13 10 8 8 8 7 6 6
7 8 8 8 9 7 7 10 17 11 10 7 9 10 12 10 10 9 10 12 11 12 15 15 16 11 8 10 12 12 13 15 20 20 17 12 16 13 8 7 7 6 6 7 7
8 10 9 8 8 7 11 15 14 10 9 10 10 12 12 10 11 11 11 11 11 11 14 15 15 10 9 9 10 12 14 12 14 15 19 16 13 10 8 8 7 7 7 7 7
11 10 7 6 6 9 13 14 12 9 9 9 13 11 14 12 12 12 12 9 9 8 10 12 15 11 10 9 9 10 9 14 15 21 22 18 16 15 11 9 8 8 7 7 7
11 10 6 5 6 11 16 13 10 9 9 11 12 12 12 12 12 12 11 9 7 9 10 11 13 13 11 12 13 12 13 13 14 16 20 22 17 12 11 9 9 9 7 7 7
13 15 7 6 12 11 13 10 10 10 9 10 10 11 12 12 13 12 12 10 8 8 11 11 13 16 14 11 9 10 12 13 17 19 17 17 17 8 9 8 8 8 6 6 6
12 12 7 7 14 14 12 11 10 11 10 12 11 11 11 12 14 12 11 9 9 9 11 11 15 18 16 13 10 12 12 12 13 14 17 19 17 8 8 8 8 8 6 6 5
12 12 10 9 10 13 13 12 11 9 10 11 11 11 12 13 12 14 12 10 9 8 6 9 13 14 18 14 12 14 12 12 13 17 17 16 13 10 9 9 8 7 7 7 5
10 11 11 14 13 12 11 11 12 12 10 10 12 12 13 16 14 14 12 12 10 8 9 11 14 13 12 11 12 12 13 12 14 13 16 13 13 11 10 9 9 7 7 6 6
12 12 11 12 10 11 11 12 12 12 12 12 13 12 13 15 14 15 13 13 13 11 12 11 14 14 15 11 11 13 12 12 11 11 12 11 12 10 9 8 8 8 7 7 7
8 9 11 11 11 12 12 11 11 11 11 10 12 13 13 12 11 11 11 12 12 12 12 12 13 15 17 12 13 15 12 12 12 11 12 15 12 10 10 9 8 8 7 7 6